Warning: Javascript must be enabled to use all the features on this page!


Page Loading - Please Wait...

Click to hideNews Bulletins

Peak Streamflow for New Jersey

Click to hide state-specific text

ALL DATA ARE AT LOCAL TIME


USGS 01389765 Molly Ann Brook at North Haledon NJ

Passaic County, New Jersey
Hydrologic Unit Code 02030103
Latitude  40°57'11", Longitude  74°11'05" NAD83
Drainage area 3.89  square miles
Gage datum 209.68 feet above NGVD29
Output formats
Table
Graph
Tab-separated file
peakfq (watstore) format
Reselect output format
Water
Year
Date Gage
Height
(feet)
Stream-
flow
(cfs)
1945 1945-07-23   3,1002,7
1979 1979-09-06 8.66 933
1980 1980-04-28 7.62 754
1981 1981-07-21 6.11 400
1982 1982-06-11 7.19 610
1983 1983-03-28 7.20 661
1984 1984-05-29 8.87 968
1985 1985-09-27 6.14 400
1986 1986-08-03 8.08 835
1987 1986-11-21 6.66 550
1988 1988-07-24 7.36 650
1989 1989-09-20 6.74 560
1990 1990-05-16 10.93 1,300
1991 1991-03-03 7.45 730
1992 1992-09-03 8.12 842
1993 1992-11-23 5.40 250
1994 1993-11-28 7.46 718
1995 1995-01-20 4.86 138
1996 1996-07-08 8.02 824
1997 1996-12-02 5.87 360
1998 1998-06-14 6.44 488
1999 1999-09-16 10.74 1,270
2000 2000-08-11 7.67 763
2001 2001-06-17 6.33 467
2002 2002-07-19 6.42 484
2003 2003-08-04 6.24 450
2004 2004-07-23 6.76 557
2005 2004-11-28 7.01 616
2006 2006-07-22 9.13 1,010
2007 2007-04-15 6.88 667
2008 2008-09-06 6.66 551
2009 2009-08-02   4122
2010 2010-03-10 5.705 3872
2011 2011-08-28 8.30 980
2012 2012-07-28 6.29 445
2013 2013-07-01 6.88 616
2014 2014-04-30 5.60 281
2015 2015-07-01 5.54 269
2016 2016-02-25 6.80 593
?
  Peak Gage-Height Qualification Codes.
?
  Peak Streamflow Qualification Codes.